| time (UTC) | temp F | wind direction | speed MPH | gust MPH | rain 1hr in | rain 24hr in | rain mn in | humidity % | barometer mb |
| 20260902053040 | 87 | 204 | 5.0 | 14.0 | 0.00 | 0.00 | 0.00 | 62 | 1015.3 |
| 20260902052522 | 87 | 207 | 3.0 | 11.0 | 0.00 | 0.00 | 0.00 | 62 | 1015.2 |
| 20260902052020 | 87 | 191 | 3.0 | 11.0 | 0.00 | 0.00 | 0.00 | 62 | 1015.3 |
| 20260902051538 | 87 | 200 | 3.0 | 10.0 | 0.00 | 0.00 | 0.00 | 62 | 1015.3 |
| 20260902051021 | 87 | 191 | 2.0 | 10.0 | 0.00 | 0.00 | 0.00 | 62 | 1015.3 |
| 20260902050519 | 87 | 142 | 2.0 | 9.0 | 0.00 | 0.00 | 0.00 | 61 | 1015.3 |
| 20260902050040 | 87 | 175 | 3.0 | 10.0 | 0.00 | 0.00 | 0.00 | 61 | 1015.2 |
| 20260902045519 | 88 | 241 | 1.0 | 10.0 | 0.00 | 0.00 | 0.00 | 61 | 1015.3 |
| 20260902045019 | 88 | 202 | 5.0 | 10.0 | 0.00 | 0.00 | 0.00 | 60 | 1015.3 |
| 20260902044538 | 88 | 198 | 3.0 | 12.0 | 0.00 | 0.00 | 0.00 | 60 | 1015.2 |
| 20260902044018 | 88 | 175 | 2.0 | 12.0 | 0.00 | 0.00 | 0.00 | 59 | 1015.3 |
| 20260902043519 | 88 | 112 | 4.0 | 10.0 | 0.00 | 0.00 | 0.00 | 59 | 1015.3 |
| 20260902043036 | 89 | 0 | 3.0 | 10.0 | 0.00 | 0.00 | 0.00 | 58 | 1015.3 |
| 20260902042518 | 89 | 227 | 4.0 | 10.0 | 0.00 | 0.00 | 0.00 | 57 | 1015.3 |
| 20260902042018 | 89 | 204 | 3.0 | 11.0 | 0.00 | 0.00 | 0.00 | 56 | 1015.1 |
| 20260902041539 | 90 | 153 | 4.0 | 11.0 | 0.00 | 0.00 | 0.00 | 55 | 1015.2 |
| 20260902041017 | 90 | 216 | 2.0 | 11.0 | 0.00 | 0.00 | 0.00 | 54 | 1015.0 |
| 20260902040519 | 90 | 227 | 4.0 | 11.0 | 0.00 | 0.00 | 0.00 | 54 | 1014.9 |
| 20260902040036 | 90 | 235 | 1.0 | 6.0 | 0.00 | 0.00 | 0.00 | 53 | 1014.8 |
| 20260902035518 | 90 | 130 | 0.0 | 2.0 | 0.00 | 0.00 | 0.00 | 55 | 1014.7 |
| 20260902035019 | 90 | 0 | 0.0 | 0.0 | 0.00 | 0.00 | 0.00 | 54 | 1014.7 |
| 20260902034536 | 90 | 0 | 0.0 | 0.0 | 0.00 | 0.00 | 0.00 | 54 | 1014.6 |
| 20260902034019 | 90 | 0 | 0.0 | 0.0 | 0.00 | 0.00 | 0.00 | 54 | 1014.6 |
| 20260902033517 | 90 | 0 | 0.0 | 0.0 | 0.00 | 0.00 | 0.00 | 54 | 1014.6 |
| 20260902033043 | 90 | 0 | 0.0 | 0.0 | 0.00 | 0.00 | 0.00 | 54 | 1014.6 |
| 20260902032522 | 90 | 0 | 0.0 | 1.0 | 0.00 | 0.00 | 0.00 | 54 | 1014.6 |
| 20260902032023 | 90 | 0 | 0.0 | 1.0 | 0.00 | 0.00 | 0.00 | 53 | 1014.6 |
| 20260902031538 | 91 | 0 | 0.0 | 1.0 | 0.00 | 0.00 | 0.00 | 53 | 1014.5 |
| 20260902031019 | 91 | 0 | 0.0 | 1.0 | 0.00 | 0.00 | 0.00 | 52 | 1014.5 |
| 20260902030519 | 91 | 0 | 0.0 | 1.0 | 0.00 | 0.00 | 0.00 | 52 | 1014.3 |
| 20260902030035 | 91 | 0 | 0.0 | 2.0 | 0.00 | 0.00 | 0.00 | 52 | 1014.4 |
| 20260902025518 | 91 | 0 | 0.0 | 5.0 | 0.00 | 0.00 | 0.00 | 51 | 1014.4 |
| 20260902025023 | 91 | 130 | 0.0 | 5.0 | 0.00 | 0.00 | 0.00 | 51 | 1014.3 |
| 20260902024537 | 92 | 151 | 0.0 | 7.0 | 0.00 | 0.00 | 0.00 | 51 | 1014.2 |
| 20260902024019 | 91 | 232 | 0.0 | 7.0 | 0.00 | 0.00 | 0.00 | 52 | 1014.2 |
| 20260902023519 | 91 | 0 | 0.0 | 2.0 | 0.00 | 0.00 | 0.00 | 52 | 1014.1 |
| 20260902023038 | 91 | 0 | 0.0 | 2.0 | 0.00 | 0.00 | 0.00 | 52 | 1014.0 |
| 20260902022517 | 91 | 0 | 0.0 | 2.0 | 0.00 | 0.00 | 0.00 | 52 | 1013.9 |
| 20260902022019 | 91 | 0 | 0.0 | 2.0 | 0.00 | 0.00 | 0.00 | 51 | 1013.8 |
| 20260902021546 | 91 | 0 | 0.0 | 2.0 | 0.00 | 0.00 | 0.00 | 52 | 1013.7 |
| 20260902021021 | 91 | 0 | 0.0 | 0.0 | 0.00 | 0.00 | 0.00 | 51 | 1013.7 |
| 20260902020520 | 91 | 0 | 0.0 | 1.0 | 0.00 | 0.00 | 0.00 | 51 | 1013.6 |
| 20260902020037 | 92 | 0 | 0.0 | 4.0 | 0.00 | 0.00 | 0.00 | 52 | 1013.6 |
| 20260902015517 | 92 | 0 | 0.0 | 4.0 | 0.00 | 0.00 | 0.00 | 52 | 1013.5 |
| 20260902015018 | 91 | 0 | 0.0 | 0.0 | 0.00 | 0.00 | 0.00 | 50 | 1013.4 |
| 20260902014539 | 92 | 0 | 0.0 | 0.0 | 0.00 | 0.00 | 0.00 | 52 | 1013.4 |
| 20260902014023 | 92 | 0 | 0.0 | 1.0 | 0.00 | 0.00 | 0.00 | 50 | 1013.2 |
| 20260902013519 | 92 | 0 | 0.0 | 1.0 | 0.00 | 0.00 | 0.00 | 51 | 1013.1 |
| 20260902013037 | 92 | 0 | 0.0 | 0.0 | 0.00 | 0.00 | 0.00 | 51 | 1013.1 |
| 20260902012519 | 92 | 0 | 0.0 | 0.0 | 0.00 | 0.00 | 0.00 | 53 | 1013.1 |
| 20260902012018 | 92 | 0 | 0.0 | 1.0 | 0.00 | 0.00 | 0.00 | 52 | 1013.0 |
| 20260902011539 | 93 | 0 | 0.0 | 2.0 | 0.00 | 0.00 | 0.00 | 54 | 1013.0 |
| 20260902011018 | 93 | 0 | 0.0 | 2.0 | 0.00 | 0.00 | 0.00 | 47 | 1013.0 |
| 20260902010518 | 93 | 0 | 0.0 | 1.0 | 0.00 | 0.00 | 0.00 | 46 | 1013.0 |
| 20260902010053 | 94 | 0 | 0.0 | 2.0 | 0.00 | 0.00 | 0.00 | 46 | 1013.1 |
| 20260902005520 | 94 | 0 | 0.0 | 2.0 | 0.00 | 0.00 | 0.00 | 45 | 1013.1 |
| 20260902005018 | 94 | 0 | 0.0 | 2.0 | 0.00 | 0.00 | 0.00 | 45 | 1013.1 |
| 20260902004544 | 94 | 0 | 0.0 | 2.0 | 0.00 | 0.00 | 0.00 | 45 | 1013.2 |
| 20260902004023 | 95 | 0 | 0.0 | 2.0 | 0.00 | 0.00 | 0.00 | 44 | 1013.1 |
| 20260902003519 | 95 | 0 | 0.0 | 3.0 | 0.00 | 0.00 | 0.00 | 44 | 1013.2 |
| 20260902003038 | 95 | 0 | 0.0 | 3.0 | 0.00 | 0.00 | 0.00 | 44 | 1013.2 |
| 20260902002520 | 95 | 0 | 0.0 | 1.0 | 0.00 | 0.00 | 0.00 | 44 | 1013.2 |
| 20260902002021 | 96 | 0 | 0.0 | 4.0 | 0.00 | 0.00 | 0.00 | 44 | 1013.2 |
| 20260902001535 | 96 | 0 | 0.0 | 7.0 | 0.00 | 0.00 | 0.00 | 44 | 1013.2 |
| 20260902001020 | 96 | 0 | 0.0 | 7.0 | 0.00 | 0.00 | 0.00 | 44 | 1013.3 |
| 20260902000519 | 96 | 0 | 0.0 | 6.0 | 0.00 | 0.00 | 0.00 | 43 | 1013.3 |
| 20260902000050 | 96 | 112 | 0.0 | 6.0 | 0.00 | 0.00 | 0.00 | 43 | 1013.5 |
| 20260901235520 | 96 | 0 | 1.0 | 4.0 | 0.00 | 0.00 | 0.00 | 43 | 1013.5 |
| 20260901235019 | 97 | 0 | 0.0 | 4.0 | 0.00 | 0.00 | 0.00 | 42 | 1013.4 |
| 20260901234603 | 97 | 0 | 0.0 | 3.0 | 0.00 | 0.00 | 0.00 | 42 | 1013.4 |
| 20260901234017 | 97 | 0 | 0.0 | 7.0 | 0.00 | 0.00 | 0.00 | 42 | 1013.5 |
| 20260901233520 | 97 | 0 | 1.0 | 7.0 | 0.00 | 0.00 | 0.00 | 42 | 1013.5 |
| 20260901233037 | 97 | 85 | 1.0 | 6.0 | 0.00 | 0.00 | 0.00 | 42 | 1013.6 |
| 20260901232517 | 98 | 0 | 0.0 | 3.0 | 0.00 | 0.00 | 0.00 | 41 | 1013.7 |
| 20260901232020 | 98 | 0 | 0.0 | 4.0 | 0.00 | 0.00 | 0.00 | 40 | 1013.6 |
| 20260901231546 | 98 | 0 | 0.0 | 5.0 | 0.00 | 0.00 | 0.00 | 40 | 1013.7 |
| 20260901231020 | 98 | 162 | 1.0 | 5.0 | 0.00 | 0.00 | 0.00 | 40 | 1013.7 |
| 20260901230520 | 98 | 132 | 0.0 | 4.0 | 0.00 | 0.00 | 0.00 | 42 | 1013.7 |
| 20260901230054 | 97 | 127 | 1.0 | 9.0 | 0.00 | 0.00 | 0.00 | 42 | 1013.8 |
| 20260901225518 | 97 | 139 | 2.0 | 9.0 | 0.00 | 0.00 | 0.00 | 42 | 1013.9 |
| 20260901225019 | 97 | 213 | 3.0 | 8.0 | 0.00 | 0.00 | 0.00 | 41 | 1013.8 |
| 20260901224538 | 98 | 134 | 0.0 | 8.0 | 0.00 | 0.00 | 0.00 | 40 | 1013.8 |
| 20260901224015 | 98 | 203 | 2.0 | 8.0 | 0.00 | 0.00 | 0.00 | 40 | 1013.8 |
| 20260901223516 | 98 | 118 | 1.0 | 12.0 | 0.00 | 0.00 | 0.00 | 40 | 1013.8 |
| 20260901223056 | 98 | 132 | 1.0 | 12.0 | 0.00 | 0.00 | 0.00 | 40 | 1013.8 |
| 20260901222520 | 99 | 88 | 1.0 | 11.0 | 0.00 | 0.00 | 0.00 | 39 | 1013.8 |
| 20260901222022 | 99 | 177 | 3.0 | 11.0 | 0.00 | 0.00 | 0.00 | 39 | 1013.8 |
| 20260901221539 | 101 | 183 | 1.0 | 6.0 | 0.00 | 0.00 | 0.00 | 38 | 1013.8 |
| 20260901221020 | 101 | 118 | 0.0 | 5.0 | 0.00 | 0.00 | 0.00 | 38 | 1013.8 |
| 20260901220518 | 100 | 0 | 0.0 | 3.0 | 0.00 | 0.00 | 0.00 | 38 | 1013.8 |
| 20260901220037 | 100 | 0 | 0.0 | 6.0 | 0.00 | 0.00 | 0.00 | 38 | 1013.8 |
| 20260901215519 | 101 | 131 | 1.0 | 6.0 | 0.00 | 0.00 | 0.00 | 37 | 1013.9 |
| 20260901215021 | 101 | 142 | 1.0 | 5.0 | 0.00 | 0.00 | 0.00 | 37 | 1014.0 |
| 20260901214538 | 100 | 81 | 0.0 | 4.0 | 0.00 | 0.00 | 0.00 | 39 | 1014.1 |
| 20260901214024 | 101 | 82 | 0.0 | 9.0 | 0.00 | 0.00 | 0.00 | 38 | 1014.1 |
| 20260901213520 | 102 | 82 | 2.0 | 9.0 | 0.00 | 0.00 | 0.00 | 38 | 1014.1 |
| 20260901213042 | 101 | 113 | 0.0 | 4.0 | 0.00 | 0.00 | 0.00 | 38 | 1014.2 |
| 20260901212517 | 99 | 0 | 1.0 | 4.0 | 0.00 | 0.00 | 0.00 | 40 | 1014.2 |
| 20260901212017 | 100 | 0 | 0.0 | 8.0 | 0.00 | 0.00 | 0.00 | 39 | 1014.2 |
| 20260901211545 | 102 | 0 | 1.0 | 8.0 | 0.00 | 0.00 | 0.00 | 38 | 1014.3 |
| 20260901211019 | 103 | 172 | 1.0 | 4.0 | 0.00 | 0.00 | 0.00 | 37 | 1014.4 |
| 20260901210524 | 103 | 0 | 1.0 | 4.0 | 0.00 | 0.00 | 0.00 | 38 | 1014.5 |
| 20260901210035 | 101 | 173 | 1.0 | 4.0 | 0.00 | 0.00 | 0.00 | 40 | 1014.5 |
| 20260901205518 | 100 | 0 | 2.0 | 5.0 | 0.00 | 0.00 | 0.00 | 39 | 1014.3 |
| 20260901205018 | 101 | 172 | 1.0 | 5.0 | 0.00 | 0.00 | 0.00 | 38 | 1014.5 |
| 20260901204543 | 101 | 102 | 1.0 | 4.0 | 0.00 | 0.00 | 0.00 | 37 | 1014.6 |
| 20260901204017 | 102 | 101 | 2.0 | 4.0 | 0.00 | 0.00 | 0.00 | 37 | 1014.5 |
| 20260901203522 | 102 | 101 | 0.0 | 4.0 | 0.00 | 0.00 | 0.00 | 37 | 1014.4 |
| 20260901203037 | 102 | 121 | 2.0 | 4.0 | 0.00 | 0.00 | 0.00 | 37 | 1014.6 |
| 20260901202516 | 102 | 129 | 1.0 | 4.0 | 0.00 | 0.00 | 0.00 | 37 | 1014.7 |
| 20260901202018 | 101 | 0 | 1.0 | 7.0 | 0.00 | 0.00 | 0.00 | 37 | 1014.7 |
| 20260901201537 | 101 | 118 | 1.0 | 7.0 | 0.00 | 0.00 | 0.00 | 38 | 1014.8 |
| 20260901201020 | 101 | 116 | 1.0 | 4.0 | 0.00 | 0.00 | 0.00 | 39 | 1014.9 |
| 20260901200522 | 101 | 88 | 1.0 | 7.0 | 0.00 | 0.00 | 0.00 | 38 | 1014.8 |
| 20260901200052 | 100 | 110 | 1.0 | 7.0 | 0.00 | 0.00 | 0.00 | 38 | 1015.0 |
| 20260901195520 | 99 | 135 | 2.0 | 7.0 | 0.00 | 0.00 | 0.00 | 39 | 1015.0 |
| 20260901195020 | 99 | 215 | 1.0 | 7.0 | 0.00 | 0.00 | 0.00 | 39 | 1014.9 |
| 20260901194549 | 100 | 109 | 1.0 | 6.0 | 0.00 | 0.00 | 0.00 | 38 | 1014.9 |
| 20260901194017 | 100 | 145 | 1.0 | 5.0 | 0.00 | 0.00 | 0.00 | 37 | 1015.1 |
| 20260901193516 | 100 | 106 | 1.0 | 6.0 | 0.00 | 0.00 | 0.00 | 38 | 1015.1 |
| 20260901193036 | 100 | 0 | 2.0 | 9.0 | 0.00 | 0.00 | 0.00 | 39 | 1015.3 |
| 20260901192518 | 99 | 0 | 2.0 | 9.0 | 0.00 | 0.00 | 0.00 | 39 | 1015.3 |
| 20260901192020 | 100 | 144 | 2.0 | 7.0 | 0.00 | 0.00 | 0.00 | 38 | 1015.4 |
| 20260901191536 | 99 | 0 | 1.0 | 5.0 | 0.00 | 0.00 | 0.00 | 40 | 1015.3 |
| 20260901191026 | 98 | 114 | 1.0 | 5.0 | 0.00 | 0.00 | 0.00 | 41 | 1015.3 |
| 20260901190518 | 98 | 0 | 0.0 | 5.0 | 0.00 | 0.00 | 0.00 | 41 | 1015.3 |
| 20260901190035 | 99 | 85 | 1.0 | 5.0 | 0.00 | 0.00 | 0.00 | 41 | 1015.4 |
| 20260901185520 | 98 | 0 | 0.0 | 4.0 | 0.00 | 0.00 | 0.00 | 42 | 1015.6 |
| 20260901185020 | 97 | 122 | 1.0 | 6.0 | 0.00 | 0.00 | 0.00 | 43 | 1015.7 |
| 20260901184538 | 97 | 106 | 1.0 | 6.0 | 0.00 | 0.00 | 0.00 | 42 | 1015.8 |
| 20260901184018 | 98 | 162 | 0.0 | 5.0 | 0.00 | 0.00 | 0.00 | 41 | 1015.8 |
| 20260901183518 | 98 | 129 | 1.0 | 5.0 | 0.00 | 0.00 | 0.00 | 43 | 1016.0 |
| 20260901183043 | 98 | 222 | 1.0 | 4.0 | 0.00 | 0.00 | 0.00 | 44 | 1016.0 |
| 20260901182519 | 97 | 159 | 1.0 | 4.0 | 0.00 | 0.00 | 0.00 | 44 | 1016.1 |
| 20260901182023 | 98 | 0 | 2.0 | 6.0 | 0.00 | 0.00 | 0.00 | 43 | 1016.2 |
| 20260901181546 | 97 | 94 | 2.0 | 7.0 | 0.00 | 0.00 | 0.00 | 44 | 1016.2 |
| 20260901181018 | 97 | 85 | 1.0 | 7.0 | 0.00 | 0.00 | 0.00 | 46 | 1016.3 |
| 20260901180520 | 96 | 110 | 0.0 | 6.0 | 0.00 | 0.00 | 0.00 | 47 | 1016.3 |
| 20260901180037 | 97 | 20 | 1.0 | 6.0 | 0.00 | 0.00 | 0.00 | 45 | 1016.5 |
| 20260901175524 | 97 | 0 | 0.0 | 7.0 | 0.00 | 0.00 | 0.00 | 46 | 1016.6 |
| 20260901175017 | 97 | 165 | 2.0 | 7.0 | 0.00 | 0.00 | 0.00 | 46 | 1016.7 |
| 20260901174538 | 96 | 192 | 1.0 | 6.0 | 0.00 | 0.00 | 0.00 | 47 | 1016.9 |
| 20260901174020 | 95 | 168 | 2.0 | 6.0 | 0.00 | 0.00 | 0.00 | 48 | 1016.8 |
| 20260901173518 | 95 | 202 | 1.0 | 4.0 | 0.00 | 0.00 | 0.00 | 47 | 1016.9 |
| 20260901173050 | 96 | 160 | 1.0 | 7.0 | 0.00 | 0.00 | 0.00 | 48 | 1017.0 |
| 20260901172520 | 95 | 211 | 2.0 | 8.0 | 0.00 | 0.00 | 0.00 | 48 | 1017.0 |
| 20260901172017 | 95 | 214 | 3.0 | 8.0 | 0.00 | 0.00 | 0.00 | 49 | 1017.1 |
| 20260901171535 | 95 | 195 | 1.0 | 6.0 | 0.00 | 0.00 | 0.00 | 48 | 1017.1 |
| 20260901171017 | 94 | 0 | 0.0 | 4.0 | 0.00 | 0.00 | 0.00 | 51 | 1017.1 |
| 20260901170522 | 94 | 0 | 1.0 | 5.0 | 0.00 | 0.00 | 0.00 | 52 | 1017.1 |
| 20260901170036 | 93 | 0 | 0.0 | 5.0 | 0.00 | 0.00 | 0.00 | 51 | 1017.1 |
| 20260901165517 | 92 | 0 | 0.0 | 7.0 | 0.00 | 0.00 | 0.00 | 54 | 1017.1 |
| 20260901165019 | 92 | 0 | 1.0 | 7.0 | 0.00 | 0.00 | 0.00 | 54 | 1017.1 |
| 20260901164534 | 92 | 0 | 0.0 | 5.0 | 0.00 | 0.00 | 0.00 | 54 | 1017.2 |
| 20260901164020 | 92 | 0 | 0.0 | 5.0 | 0.00 | 0.00 | 0.00 | 55 | 1017.2 |
| 20260901163519 | 92 | 0 | 0.0 | 5.0 | 0.00 | 0.00 | 0.00 | 53 | 1017.2 |
| 20260901163039 | 92 | 0 | 0.0 | 5.0 | 0.00 | 0.00 | 0.00 | 54 | 1017.3 |
| 20260901162520 | 92 | 224 | 1.0 | 7.0 | 0.00 | 0.00 | 0.00 | 53 | 1017.4 |
| 20260901162022 | 93 | 0 | 0.0 | 7.0 | 0.00 | 0.00 | 0.00 | 52 | 1017.5 |
| 20260901161535 | 93 | 193 | 1.0 | 5.0 | 0.00 | 0.00 | 0.00 | 53 | 1017.4 |
| 20260901161020 | 92 | 181 | 1.0 | 6.0 | 0.00 | 0.00 | 0.00 | 54 | 1017.3 |
| 20260901160517 | 92 | 194 | 0.0 | 6.0 | 0.00 | 0.00 | 0.00 | 54 | 1017.3 |
| 20260901160041 | 92 | 233 | 0.0 | 6.0 | 0.00 | 0.00 | 0.00 | 53 | 1017.3 |
| 20260901155520 | 92 | 0 | 1.0 | 4.0 | 0.00 | 0.00 | 0.00 | 54 | 1017.3 |
| 20260901155019 | 92 | 0 | 0.0 | 4.0 | 0.00 | 0.00 | 0.00 | 55 | 1017.3 |
| 20260901154537 | 91 | 0 | 0.0 | 4.0 | 0.00 | 0.00 | 0.00 | 55 | 1017.3 |
| 20260901154019 | 91 | 0 | 0.0 | 4.0 | 0.00 | 0.00 | 0.00 | 56 | 1017.3 |
| 20260901153518 | 91 | 0 | 0.0 | 3.0 | 0.00 | 0.00 | 0.00 | 56 | 1017.3 |
| 20260901153040 | 90 | 0 | 0.0 | 5.0 | 0.00 | 0.00 | 0.00 | 57 | 1017.2 |
| 20260901152516 | 90 | 0 | 0.0 | 6.0 | 0.00 | 0.00 | 0.00 | 59 | 1017.2 |
| 20260901152019 | 89 | 0 | 1.0 | 6.0 | 0.00 | 0.00 | 0.00 | 59 | 1017.2 |
| 20260901151536 | 89 | 190 | 1.0 | 5.0 | 0.00 | 0.00 | 0.00 | 60 | 1017.2 |
| 20260901151020 | 89 | 269 | 0.0 | 6.0 | 0.00 | 0.00 | 0.00 | 60 | 1017.2 |
| 20260901150519 | 88 | 291 | 2.0 | 6.0 | 0.00 | 0.00 | 0.00 | 61 | 1017.3 |
| 20260901150038 | 88 | 0 | 0.0 | 4.0 | 0.00 | 0.00 | 0.00 | 61 | 1017.4 |
| 20260901145519 | 88 | 30 | 0.0 | 4.0 | 0.00 | 0.00 | 0.00 | 62 | 1017.4 |
| 20260901145019 | 87 | 0 | 0.0 | 5.0 | 0.00 | 0.00 | 0.00 | 63 | 1017.5 |
| 20260901144538 | 87 | 204 | 1.0 | 5.0 | 0.00 | 0.00 | 0.00 | 64 | 1017.4 |
| 20260901144018 | 86 | 0 | 0.0 | 5.0 | 0.00 | 0.00 | 0.00 | 65 | 1017.5 |
| 20260901143517 | 86 | 206 | 1.0 | 5.0 | 0.00 | 0.00 | 0.00 | 66 | 1017.5 |
| 20260901143043 | 86 | 0 | 0.0 | 4.0 | 0.00 | 0.00 | 0.00 | 66 | 1017.5 |
| 20260901142518 | 85 | 0 | 1.0 | 5.0 | 0.00 | 0.00 | 0.00 | 66 | 1017.5 |
| 20260901142020 | 85 | 0 | 0.0 | 5.0 | 0.00 | 0.00 | 0.00 | 67 | 1017.4 |
| 20260901141545 | 85 | 0 | 1.0 | 5.0 | 0.00 | 0.00 | 0.00 | 67 | 1017.5 |
| 20260901141019 | 85 | 0 | 0.0 | 6.0 | 0.00 | 0.00 | 0.00 | 68 | 1017.5 |
| 20260901140517 | 84 | 200 | 2.0 | 6.0 | 0.00 | 0.00 | 0.00 | 68 | 1017.4 |
| 20260901140038 | 84 | 0 | 0.0 | 3.0 | 0.00 | 0.00 | 0.00 | 69 | 1017.5 |
| 20260901135519 | 84 | 0 | 0.0 | 3.0 | 0.00 | 0.00 | 0.00 | 69 | 1017.5 |
| 20260901135018 | 84 | 0 | 0.0 | 4.0 | 0.00 | 0.00 | 0.00 | 70 | 1017.5 |
| 20260901134536 | 83 | 0 | 0.0 | 4.0 | 0.00 | 0.00 | 0.00 | 70 | 1017.5 |
| 20260901134019 | 83 | 177 | 0.0 | 4.0 | 0.00 | 0.00 | 0.00 | 70 | 1017.5 |
| 20260901133519 | 83 | 175 | 0.0 | 7.0 | 0.00 | 0.00 | 0.00 | 69 | 1017.6 |
| 20260901133042 | 83 | 202 | 1.0 | 7.0 | 0.00 | 0.00 | 0.00 | 69 | 1017.5 |
| 20260901132538 | 83 | 177 | 1.0 | 4.0 | 0.00 | 0.00 | 0.00 | 69 | 1017.5 |
| 20260901132020 | 83 | 195 | 0.0 | 5.0 | 0.00 | 0.00 | 0.00 | 69 | 1017.5 |
| 20260901131537 | 83 | 194 | 0.0 | 5.0 | 0.00 | 0.00 | 0.00 | 69 | 1017.5 |
| 20260901131019 | 83 | 197 | 1.0 | 6.0 | 0.00 | 0.00 | 0.00 | 69 | 1017.3 |
| 20260901130520 | 82 | 0 | 1.0 | 6.0 | 0.00 | 0.00 | 0.00 | 69 | 1017.4 |
| 20260901130037 | 82 | 0 | 1.0 | 7.0 | 0.00 | 0.00 | 0.00 | 69 | 1017.3 |
| 20260901125517 | 82 | 186 | 2.0 | 7.0 | 0.00 | 0.00 | 0.00 | 69 | 1017.1 |
| 20260901125017 | 82 | 0 | 1.0 | 7.0 | 0.00 | 0.00 | 0.00 | 69 | 1017.1 |
| 20260901124550 | 82 | 0 | 0.0 | 4.0 | 0.00 | 0.00 | 0.00 | 69 | 1017.1 |
| 20260901124018 | 82 | 184 | 0.0 | 5.0 | 0.00 | 0.00 | 0.00 | 70 | 1016.9 |
| 20260901123521 | 81 | 0 | 1.0 | 5.0 | 0.00 | 0.00 | 0.00 | 70 | 1016.9 |
| 20260901123038 | 81 | 0 | 0.0 | 2.0 | 0.00 | 0.00 | 0.00 | 70 | 1016.7 |
| 20260901122518 | 81 | 195 | 0.0 | 2.0 | 0.00 | 0.00 | 0.00 | 70 | 1016.7 |
| 20260901122019 | 81 | 0 | 0.0 | 1.0 | 0.00 | 0.00 | 0.00 | 70 | 1016.6 |
| 20260901121545 | 81 | 0 | 0.0 | 2.0 | 0.00 | 0.00 | 0.00 | 70 | 1016.4 |
| 20260901121018 | 81 | 0 | 0.0 | 3.0 | 0.00 | 0.00 | 0.00 | 70 | 1016.4 |
| 20260901120524 | 81 | 0 | 0.0 | 3.0 | 0.00 | 0.00 | 0.00 | 70 | 1016.3 |
| 20260901120036 | 81 | 0 | 0.0 | 3.0 | 0.00 | 0.00 | 0.00 | 70 | 1016.3 |
| 20260901115523 | 81 | 0 | 0.0 | 3.0 | 0.00 | 0.00 | 0.00 | 70 | 1016.3 |
| 20260901115018 | 81 | 0 | 0.0 | 0.0 | 0.00 | 0.00 | 0.00 | 70 | 1016.3 |
| 20260901114535 | 81 | 0 | 0.0 | 0.0 | 0.00 | 0.00 | 0.00 | 69 | 1016.4 |
| 20260901114019 | 81 | 0 | 0.0 | 3.0 | 0.00 | 0.00 | 0.00 | 69 | 1016.4 |
| 20260901113520 | 81 | 0 | 0.0 | 3.0 | 0.00 | 0.00 | 0.00 | 68 | 1016.3 |
| 20260901113038 | 81 | 0 | 0.0 | 3.0 | 0.00 | 0.00 | 0.00 | 68 | 1016.2 |
| 20260901112518 | 82 | 0 | 0.0 | 3.0 | 0.00 | 0.00 | 0.00 | 68 | 1016.2 |
| 20260901112018 | 82 | 185 | 0.0 | 3.0 | 0.00 | 0.00 | 0.00 | 68 | 1016.2 |
| 20260901111542 | 82 | 0 | 0.0 | 3.0 | 0.00 | 0.00 | 0.00 | 68 | 1016.1 |
| 20260901111020 | 82 | 0 | 0.0 | 2.0 | 0.00 | 0.00 | 0.00 | 67 | 1016.0 |
| 20260901110518 | 82 | 0 | 0.0 | 2.0 | 0.00 | 0.00 | 0.00 | 66 | 1015.9 |
| 20260901110045 | 82 | 0 | 0.0 | 4.0 | 0.00 | 0.00 | 0.00 | 66 | 1015.9 |
| 20260901105519 | 82 | 0 | 0.0 | 4.0 | 0.00 | 0.00 | 0.00 | 66 | 1016.0 |
| 20260901105020 | 82 | 0 | 0.0 | 4.0 | 0.00 | 0.00 | 0.00 | 66 | 1016.0 |
| 20260901104535 | 82 | 0 | 0.0 | 4.0 | 0.00 | 0.00 | 0.00 | 66 | 1016.0 |
| 20260901104018 | 82 | 189 | 0.0 | 4.0 | 0.00 | 0.00 | 0.00 | 65 | 1016.0 |
| 20260901103517 | 82 | 0 | 0.0 | 2.0 | 0.00 | 0.00 | 0.00 | 65 | 1016.0 |
| 20260901103034 | 83 | 0 | 0.0 | 4.0 | 0.00 | 0.00 | 0.00 | 65 | 1015.9 |
| 20260901102521 | 83 | 0 | 0.0 | 4.0 | 0.00 | 0.00 | 0.00 | 65 | 1016.0 |
| 20260901102016 | 83 | 0 | 0.0 | 3.0 | 0.00 | 0.00 | 0.00 | 64 | 1016.0 |
| 20260901101536 | 83 | 0 | 0.0 | 2.0 | 0.00 | 0.00 | 0.00 | 64 | 1016.1 |
| 20260901101023 | 83 | 0 | 0.0 | 4.0 | 0.00 | 0.00 | 0.00 | 64 | 1016.1 |
| 20260901100520 | 83 | 0 | 0.0 | 4.0 | 0.00 | 0.00 | 0.00 | 64 | 1016.1 |
| 20260901100037 | 83 | 0 | 0.0 | 3.0 | 0.00 | 0.00 | 0.00 | 64 | 1016.1 |
| 20260901095519 | 83 | 0 | 0.0 | 3.0 | 0.00 | 0.00 | 0.00 | 64 | 1016.1 |
| 20260901095017 | 83 | 0 | 0.0 | 1.0 | 0.00 | 0.00 | 0.00 | 63 | 1016.1 |
| 20260901094535 | 84 | 0 | 0.0 | 4.0 | 0.00 | 0.00 | 0.00 | 63 | 1016.2 |
| 20260901094021 | 84 | 0 | 0.0 | 4.0 | 0.00 | 0.00 | 0.00 | 63 | 1016.1 |
| 20260901093519 | 84 | 0 | 0.0 | 3.0 | 0.00 | 0.00 | 0.00 | 63 | 1016.1 |
| 20260901093054 | 84 | 201 | 0.0 | 3.0 | 0.00 | 0.00 | 0.00 | 62 | 1016.1 |
| 20260901092518 | 84 | 0 | 0.0 | 4.0 | 0.00 | 0.00 | 0.00 | 62 | 1016.1 |
| 20260901092018 | 84 | 0 | 0.0 | 4.0 | 0.00 | 0.00 | 0.00 | 62 | 1016.1 |
| 20260901091554 | 84 | 0 | 0.0 | 2.0 | 0.00 | 0.00 | 0.00 | 62 | 1016.0 |
| 20260901091021 | 84 | 0 | 0.0 | 3.0 | 0.00 | 0.00 | 0.00 | 62 | 1016.1 |
| 20260901090519 | 84 | 0 | 0.0 | 3.0 | 0.00 | 0.00 | 0.00 | 62 | 1016.1 |
| 20260901090036 | 85 | 0 | 0.0 | 3.0 | 0.00 | 0.00 | 0.00 | 61 | 1016.0 |
| 20260901085520 | 85 | 0 | 0.0 | 4.0 | 0.00 | 0.00 | 0.00 | 60 | 1015.9 |
| 20260901085020 | 85 | 0 | 1.0 | 4.0 | 0.00 | 0.00 | 0.00 | 60 | 1015.8 |
| 20260901084535 | 85 | 212 | 1.0 | 5.0 | 0.00 | 0.00 | 0.00 | 60 | 1015.8 |
| 20260901084020 | 85 | 0 | 0.0 | 5.0 | 0.00 | 0.00 | 0.00 | 60 | 1015.7 |
| 20260901083518 | 85 | 0 | 0.0 | 4.0 | 0.00 | 0.00 | 0.00 | 59 | 1015.8 |
| 20260901083036 | 85 | 0 | 1.0 | 6.0 | 0.00 | 0.00 | 0.00 | 59 | 1015.8 |
| 20260901082518 | 85 | 201 | 1.0 | 7.0 | 0.00 | 0.00 | 0.00 | 59 | 1015.6 |
| 20260901082018 | 86 | 0 | 0.0 | 7.0 | 0.00 | 0.00 | 0.00 | 59 | 1015.6 |
| 20260901081536 | 86 | 0 | 0.0 | 4.0 | 0.00 | 0.00 | 0.00 | 58 | 1015.6 |
| 20260901081020 | 86 | 0 | 1.0 | 6.0 | 0.00 | 0.00 | 0.00 | 58 | 1015.7 |
| 20260901080520 | 86 | 0 | 1.0 | 7.0 | 0.00 | 0.00 | 0.00 | 58 | 1015.6 |
| 20260901080042 | 86 | 218 | 1.0 | 7.0 | 0.00 | 0.00 | 0.00 | 58 | 1015.8 |
| 20260901075520 | 86 | 203 | 0.0 | 5.0 | 0.00 | 0.00 | 0.00 | 57 | 1015.8 |
| 20260901075022 | 86 | 0 | 0.0 | 5.0 | 0.00 | 0.00 | 0.00 | 57 | 1015.8 |
| 20260901074535 | 86 | 193 | 1.0 | 5.0 | 0.00 | 0.00 | 0.00 | 57 | 1015.7 |
| 20260901074019 | 86 | 0 | 0.0 | 4.0 | 0.00 | 0.00 | 0.00 | 57 | 1015.7 |
| 20260901073519 | 86 | 200 | 0.0 | 4.0 | 0.00 | 0.00 | 0.00 | 57 | 1015.7 |
| 20260901073035 | 85 | 0 | 0.0 | 1.0 | 0.00 | 0.00 | 0.00 | 57 | 1015.7 |
| 20260901072516 | 85 | 0 | 0.0 | 1.0 | 0.00 | 0.00 | 0.00 | 57 | 1015.8 |
| 20260901072021 | 86 | 0 | 0.0 | 1.0 | 0.00 | 0.00 | 0.00 | 56 | 1015.8 |
| 20260901071536 | 86 | 0 | 0.0 | 2.0 | 0.00 | 0.00 | 0.00 | 56 | 1015.8 |
| 20260901071023 | 87 | 0 | 0.0 | 2.0 | 0.00 | 0.00 | 0.00 | 55 | 1015.8 |
| 20260901070520 | 87 | 0 | 0.0 | 6.0 | 0.00 | 0.00 | 0.00 | 55 | 1015.8 |
| 20260901070038 | 87 | 0 | 0.0 | 6.0 | 0.00 | 0.00 | 0.00 | 55 | 1015.8 |
| 20260901065519 | 86 | 0 | 0.0 | 1.0 | 0.00 | 0.00 | 0.00 | 55 | 1015.8 |
| 20260901065020 | 86 | 0 | 0.0 | 1.0 | 0.00 | 0.00 | 0.00 | 55 | 1015.8 |
| 20260901064540 | 87 | 0 | 0.0 | 3.0 | 0.00 | 0.00 | 0.00 | 55 | 1015.8 |
| 20260901064018 | 87 | 0 | 0.0 | 3.0 | 0.00 | 0.00 | 0.00 | 54 | 1015.8 |
| 20260901063519 | 87 | 0 | 0.0 | 1.0 | 0.00 | 0.00 | 0.00 | 54 | 1015.7 |
| 20260901063039 | 87 | 0 | 0.0 | 2.0 | 0.00 | 0.00 | 0.00 | 53 | 1015.7 |
| 20260901062520 | 87 | 0 | 0.0 | 2.0 | 0.00 | 0.00 | 0.00 | 53 | 1015.7 |
| 20260901062020 | 87 | 0 | 0.0 | 3.0 | 0.00 | 0.00 | 0.00 | 53 | 1015.7 |
| 20260901061538 | 87 | 0 | 0.0 | 3.0 | 0.00 | 0.00 | 0.00 | 53 | 1015.6 |
| 20260901061020 | 87 | 0 | 0.0 | 4.0 | 0.00 | 0.00 | 0.00 | 52 | 1015.6 |
| 20260901060519 | 88 | 0 | 0.0 | 4.0 | 0.00 | 0.00 | 0.00 | 52 | 1015.5 |
| 20260901060035 | 87 | 0 | 0.0 | 4.0 | 0.00 | 0.00 | 0.00 | 52 | 1015.5 |
| 20260901055517 | 88 | 0 | 0.0 | 3.0 | 0.00 | 0.00 | 0.00 | 51 | 1015.5 |
| 20260901055017 | 88 | 0 | 0.0 | 5.0 | 0.00 | 0.00 | 0.00 | 51 | 1015.4 |
| 20260901054535 | 88 | 110 | 1.0 | 6.0 | 0.00 | 0.00 | 0.00 | 51 | 1015.3 |
| 20260901054019 | 88 | 0 | 0.0 | 7.0 | 0.00 | 0.00 | 0.00 | 51 | 1015.3 |
| 20260901053517 | 88 | 174 | 0.0 | 7.0 | 0.00 | 0.00 | 0.00 | 51 | 1015.3 |